Regional Weather Roundup
Issued by NWS

Home | Current Version | Previous Version | Graphics & Text | Print | Product List | Glossary On
Versions: 1 2 3 4 5 6 7 8 9 10 11 12 13 14 15 16 17 18 19 20 21 22 23 24 25 26 27 28 29 30 31 32 33 34 35 36 37 38 39 40 41 42 43 44 45 46 47 48 49 50
000
ASUS43 KFSD 191810
RWRSD

WEATHER ROUNDUP FOR SOUTH DAKOTA
NATIONAL WEATHER SERVICE SIOUX FALLS SD
100 PM CDT SAT MAY 19 2018

NOTE: "FAIR" INDICATES FEW OR NO CLOUDS BELOW 12,000 FEET WITH NO
SIGNIFICANT WEATHER AND/OR OBSTRUCTIONS TO VISIBILITY.


SDZ001>005-009-010-012>017-191900-
NORTHWEST AND NORTH CENTRAL SOUTH DAKOTA

CITY           SKY/WX    TMP DP  RH WIND       PRES   REMARKS
BUFFALO          N/A     55  32  41 NE18G26   30.20S
FAITH            N/A     54  36  50 NE23      30.21F
MOBRIDGE       PTSUNNY   60  37  42 NE25G36   30.17S
$$

SDZ012>016-024>037-041>051-057-063-072>074-191900-
SOUTHWEST AND SOUTH CENTRAL SOUTH DAKOTA

CITY           SKY/WX    TMP DP  RH WIND       PRES   REMARKS
RAPID CTY ARPT CLOUDY    48  38  68 N18       30.24S
PIERRE         PTSUNNY   62  36  37 NE25      30.13S
CUSTER         CLOUDY    39  33  79 N9        30.20R
ELLSWORTH AFB  CLOUDY    49  37  64 N16       30.24S
PHILIP         CLOUDY    55  38  52 NE17G26   30.18F
PINE RIDGE     LGT RAIN  44  43  96 N15       30.18S
SPEARFISH      PTSUNNY   45  36  70 E8        30.26F
WINNER         CLOUDY    53  45  74 N13       30.11S
$$

SDZ004>011-016>023-039-040-191900-
NORTHEAST SOUTH DAKOTA

CITY           SKY/WX    TMP DP  RH WIND       PRES   REMARKS
ABERDEEN       MOSUNNY   65  25  22 NE30G44   30.10F
WATERTOWN      CLOUDY    53  46  77 N24G32    30.05S
BROOKINGS      CLOUDY    48  44  86 N17       30.05S
SISSETON         N/A     64  40  41 N26G36    30.07S
$$

SDZ017-020-022-023-036>040-048>070-191900-
SOUTHEAST SOUTH DAKOTA

CITY           SKY/WX    TMP DP  RH WIND       PRES   REMARKS
SIOUX FALLS    CLOUDY    56  49  77 N16G25    30.00F
HURON          MOSUNNY   61  47  59 N16G28    30.06F
CHAMBERLAIN    PTSUNNY   62  46  57 N17G26    30.07F
MITCHELL       CLOUDY    54  46  74 N12G23    30.06S
YANKTON        CLOUDY    54  48  80 N8        30.04R
$$

ABBREVIATIONS USED IN REMARKS
   TC - TEMPERATURE IN CELSIUS
  WCI - WIND CHILL INDEX
   HX - HEAT INDEX
  VSB - VISIBILITY





USA.gov is the U.S. government's official web portal to all federal, state and local government web resources and services.